Home   Weather   Foochow   Past weeks

Flag for China Past Weather in Foochow, Fujian, China — Yesterday and Last 2 Weeks

Now
54 °F

Light rain. Low clouds.


Feels Like: 49 °F
Forecast: 43 / 56 °F
Wind: 15 mph from Northeast

Location: Fuzhou Airport

Current Time: Jan 19, 2017 at 9:24:37 pm

Latest Report: Jan 19, 2017 at 9:00 pm


Visibility: 4 mi

Pressure: 30.24 "Hg

Humidity: 94%

Dew Point: 52 °F

Location of FoochowLocation

Past Weather in Foochow — Graph

°F

Foochow Temperature Yesterday

Maximum temperature yesterday: 59 °F (at 2:00 pm)
Minimum temperature yesterday: 54 °F (at 12:00 am)
Average temperature yesterday: 56 °F

High & Low Weather Summary for the Past Weeks

 TemperatureHumidityPressure
High72 °F (Jan 5, 2:00 pm)100% (Jan 7, 10:00 pm)30.33 "Hg (Jan 7, 10:00 pm)
Low48 °F (Jan 15, 3:00 am)41% (Jan 14, 2:00 pm)29.86 "Hg (Jan 7, 3:00 pm)
Average57 °F81%30.14 "Hg
* Reported Jan 4 7:00 pm — Jan 19 7:00 pm, Foochow, Weather by CustomWeather, © 2017

Note: Actual official high and low records may vary slightly from our data, if they occured in-between our weather recording intervals... More about our weather records

Advertising

Foochow Weather History for the Previous 24 Hours

Scroll right to see more
 ConditionsComfort  
Time TempWeatherWind HumidityBarometerVisibility
7:00 pm
Thu, Jan 19
54 °FLow clouds.10 mph94%30.18 "HgN/A
6:00 pm55 °FMostly cloudy.10 mph88%30.18 "HgN/A
5:00 pm55 °FMostly cloudy.13 mph88%30.15 "HgN/A
4:00 pm55 °FLow clouds.13 mph88%30.12 "HgN/A
3:00 pm55 °FMore clouds than sun.10 mph88%30.15 "HgN/A
2:00 pm57 °FMostly cloudy.13 mph82%30.15 "HgN/A
1:00 pm55 °FMostly cloudy.15 mph88%30.18 "HgN/A
12:00 pm57 °FMostly cloudy.10 mph82%30.21 "HgN/A
11:00 am57 °FMore clouds than sun.10 mph82%30.24 "HgN/A
10:00 am57 °FMore clouds than sun.10 mph88%30.27 "HgN/A
9:00 am55 °FMore clouds than sun.8 mph88%30.27 "HgN/A
8:00 am55 °FLight rain. Low clouds.10 mph94%30.21 "HgN/A
7:00 am55 °FOvercast.3 mph94%30.24 "HgN/A
6:00 am55 °FMostly cloudy.6 mph94%30.21 "HgN/A
5:00 am55 °FMostly cloudy.6 mph94%30.21 "HgN/A
4:00 am55 °FMostly cloudy.8 mph94%30.21 "HgN/A
3:00 am55 °FMostly cloudy.6 mph94%30.21 "Hg5 mi
2:00 am55 °FLight rain. Fog.6 mph94%30.21 "Hg2 mi
1:00 am55 °FLight rain. Fog.6 mph94%30.21 "Hg2 mi
12:00 am55 °FMostly cloudy.8 mph94%30.21 "Hg5 mi
11:00 pm
Wed, Jan 18
54 °FLight rain. Fog.8 mph100%30.21 "Hg3 mi
10:00 pm55 °FLight rain. Fog.10 mph94%30.21 "Hg3 mi
9:00 pm55 °FLight rain. Fog.10 mph94%30.21 "Hg3 mi
Weather by CustomWeather, © 2017

See weather overviewHow to use our weather pages